Location: Alulod
(14.2076°N, 120.8898°E)
Time: 13:25:41
(UTC+00:00)

USA 238 DEB - Pass Details

Date: 22 March 2026
Orbit: 883 x 1328 km, 63.4° (Epoch: 10 January)

Event Time Altitude Azimuth Distance (km) Brightness Sun altitude
Rises 10:31:44 0° 251° (WSW) 3,475 7.9 -6.7°
Reaches altitude 10° 10:36:03 10° 281° (WNW) 2,562 7.4 -7.7°
Maximum altitude 10:38:12 12° 303° (WNW) 2,446 6.6 -8.3°
Drops below altitude 10° 10:40:22 10° 325° (NW) 2,616 6.3 -8.8°
Sets 10:44:57 0° 355° (N) 3,643 6.6 -9.9°
